[[{"header":{"parameterUnit":"m.s-1","parameterCategory":1,"la1":30.2991,"la2":30.254,"lo1":-89.0895,"lo2":-89.0444,"dy":0.0017,"dx":0.0017,"nx":28,"ny":28,"refTime":"2024-05-31T21:00:00:Z","depth":0,"parameterNumber":2,"parameterNumberName":"U-component_of_WINDS"},"data":[0,0,0,0,0,0,0,0,0,0,0,0,0,0,0,0,0,0,0,0,0,0,0,0,0,0,0,0,0,0,0,0,0,0,0,0,0,0,0,0,0,0,0,0,0,0,0,0,0,0,0,0,0,0,0,0,0,0,-5.8509,-5.851,0,-5.8622,-5.8623,-5.8624,-5.8618,-5.8617,-5.8615,-5.8614,-5.8726,-5.8731,-5.8735,0,0,0,0,0,0,0,0,0,0,0,0,0,-5.8288,-5.8292,-5.8509,-5.851,-5.8512,-5.8621,-5.8623,-5.8625,-5.8619,-5.8617,-5.8615,-5.8613,-5.8725,-5.873,-5.8736,0,0,0,0,0,0,0,0,0,0,0,0,0,-5.839,-5.8293,-5.8508,-5.8522,-5.8524,-5.8621,-5.8623,-5.8625,-5.8619,-5.8617,-5.8614,-5.8612,-5.8723,-5.873,-5.8736,-5.8826,0,0,-5.8757,-5.876,0,0,0,0,0,0,0,0,-5.8384,-5.8398,-5.8519,-5.8521,-5.8524,-5.8604,-5.8586,-5.8692,-5.862,-5.8583,-5.8614,-5.8611,-5.8687,-5.8697,-5.8723,-5.8832,-5.8836,-5.8758,-5.8762,-5.8765,-5.8767,0,0,0,0,0,0,0,-5.8377,-5.8394,-5.8553,-5.852,-5.8524,-5.8522,-5.8534,-5.8606,-5.8647,-5.8586,-5.8586,-5.86,-5.8688,-5.8717,-5.8726,-5.8838,-5.8757,-5.8763,-5.8768,-5.877,-5.9028,-5.9031,0,0,0,0,0,0,-5.8368,-5.8388,-5.855,-5.8557,-5.8447,-5.8528,-5.8542,-5.858,-5.8646,-5.8654,-5.8602,-5.8599,-5.8706,-5.8718,-5.873,-5.884,-5.8765,-5.8771,-5.8775,-5.9025,-5.9029,-5.9032,0,0,0,0,0,0,-5.8363,-5.8382,-5.8545,-5.8472,-5.8493,-5.8535,-5.8578,-5.8584,-5.8612,-5.8658,-5.8665,-5.8623,-5.8705,-5.872,-5.8803,-5.8843,-5.8774,-5.878,-5.9022,-5.9026,-5.903,-5.906,0,0,0,0,0,0,-5.8357,-5.838,-5.8415,-5.8473,-5.8497,-5.8616,-5.8581,-5.8588,-5.8624,-5.8622,-5.868,-5.8687,-5.8704,-5.8793,-5.881,-5.8851,-5.8785,-5.9018,-5.9024,-5.9029,-5.9055,-5.9064,-5.9072,0,0,0,0,0,-5.8349,-5.8417,-5.8416,-5.8436,-5.8541,-5.8619,-5.8632,-5.8651,-5.8628,-5.8662,-5.8693,-5.8686,-5.8837,-5.8801,-5.882,-5.8865,-5.9016,-5.9022,-5.9028,-5.9051,-5.9062,-5.9072,0,0,0,0,0,0,-5.836,-5.8425,-5.8425,-5.8514,-5.8562,-5.8617,-5.8661,-5.8662,-5.8715,-5.8711,-5.8731,-5.8744,-5.8827,-5.8855,-5.8814,-5.8956,-5.8923,-5.8934,-5.8934,-5.8945,-5.8954,-5.8944,-5.8791,0,0,0,0,0,-5.8374,-5.8433,-5.8486,-5.856,-5.8584,-5.8619,-5.8654,-5.8665,-5.8713,-5.8733,-5.8769,-5.8816,-5.8874,-5.8912,-5.8968,-5.9061,-5.9073,-5.9101,-5.9109,-5.9116,-5.9124,-5.9175,-5.9188,-5.9052,-5.9052,-5.9052,0,0,-5.8401,-5.8444,-5.8479,-5.8564,-5.8601,-5.8661,-5.8635,-5.8699,-5.8744,-5.8742,-5.8822,-5.8851,-5.8905,-5.8994,-5.9034,-5.9019,-5.9165,-5.9124,-5.9129,-5.9133,-5.9183,-5.9196,-5.9207,-5.9056,-5.9056,-5.9055,0,0,-5.8481,-5.852,-5.8586,-5.8626,-5.8684,-5.8708,-5.8724,-5.8781,-5.8801,-5.8882,-5.8883,-5.8937,-5.9036,-5.9075,-5.9108,-5.9209,-5.9204,-5.9227,-5.9269,-5.932,-5.933,-5.934,-5.9375,-5.9387,-5.9235,-5.9235,-5.9235,0,-5.8507,-5.8598,-5.862,-5.8685,-5.8723,-5.8727,-5.8794,-5.8831,-5.8904,-5.893,-5.8913,-5.904,-5.9077,-5.9174,-5.9199,-5.9226,-5.9245,-5.9218,-5.9327,-5.9337,-5.9346,-5.938,-5.9393,-5.9237,-5.9237,-5.9237,-5.9236,0,-5.8627,-5.869,-5.8737,-5.8809,-5.8853,-5.8918,-5.8951,-5.8992,-5.9001,-5.9027,-5.9111,-5.9156,-5.9222,-5.9247,-5.9255,-5.9347,-5.9335,-5.9323,-5.929,-5.9361,-5.9393,-5.9406,-5.924,-5.9239,-5.9239,-5.9238,0,0,-5.8713,-5.88,-5.8817,-5.885,-5.8917,-5.8966,-5.9034,-5.91,-5.9134,-5.9186,-5.9243,-5.933,-5.9319,-5.9357,-5.937,-5.9415,-5.9491,-5.9397,-5.9399,-5.9412,-5.9595,-5.9602,-5.9617,-5.9491,-5.9493,-5.9496,-5.959,0,-5.8799,-5.8918,-5.8942,-5.9045,-5.9104,-5.9112,-5.917,-5.9218,-5.9245,-5.9299,-5.9329,-5.939,-5.9372,-5.9395,-5.944,-5.9472,-5.9528,-5.9466,-5.9542,-5.9545,-5.9525,-5.9633,-5.9641,-5.9727,-5.9603,-5.9605,-5.9607,0,-5.8913,-5.8969,-5.9079,-5.914,-5.9166,-5.9218,-5.9282,-5.9334,-5.9389,-5.9406,-5.945,-5.946,-5.953,-5.9497,-5.9595,-5.9553,-5.9586,-5.9608,-5.9611,-5.9616,-5.9577,-5.9639,-5.9756,-5.9768,-5.9627,-5.9625,-5.9623,0,-5.8963,-5.9067,-5.9146,-5.9175,-5.9248,-5.9285,-5.9317,-5.937,-5.9409,-5.9466,-5.9492,-5.9555,-5.9589,-5.9639,-5.9666,-5.9639,-5.9762,-5.9731,-5.9777,-5.9776,-5.9799,-5.9797,-5.992,-5.9825,-5.9825,-5.9825,-5.9824,0,-5.9054,-5.9121,-5.917,-5.9218,-5.9293,-5.9322,-5.9395,-5.9427,-5.9475,-5.953,-5.9541,-5.9593,-5.9626,-5.9683,-5.9705,-5.9783,-5.9798,-5.9814,-5.9818,-5.9811,-5.9809,-5.9831,-5.9824,-5.9828,-5.9827,-5.9827,-5.9826,0,-5.9121,-5.9156,-5.9243,-5.9307,-5.9325,-5.9378,-5.9432,-5.948,-5.951,-5.9579,-5.9597,-5.9643,-5.971,-5.9744,-5.9827,-5.9842,-5.9929,-5.9931,-5.9911,-5.9912,-5.9955,-5.995,-6.0095,-6.0115,-6.0009,-6.001,-6.0011,0,-5.9175,-5.9227,-5.9297,-5.9336,-5.9369,-5.9431,-5.9472,-5.9503,-5.9545,-5.9614,-5.9653,-5.9722,-5.9778,-5.9885,-5.9926,-5.999,-5.9992,-6.0039,-6.0002,-5.9994,-5.9991,-5.9987,-5.9992,-6.0044,-6.0045,-6.0046,-6.0047,0,-5.9267,-5.9284,-5.9342,-5.9408,-5.9457,-5.9511,-5.9563,-5.9594,-5.9634,-5.9681,-5.975,-5.9794,-5.9881,-5.9949,-6.0017,-6.0051,-6.0055,-6.0059,-6.0073,-6.0064,-6.005,-6.0057,-5.9926,-6.0054,-6.0053,-6.0053,-6.0052,-6.0052,-5.9328,-5.9375,-5.9433,-5.9498,-5.9542,-5.9592,-5.964,-5.9677,-5.9736,-5.9809,-5.9825,-5.9899,-5.9956,-6.0048,-6.0084,-6.0143,-6.0133,-6.0153,-6.0157,-6.0161,-6.0163,-6.0043,-6.0156,-6.0156,-6.0156,-6.0155,-6.0155,0,-5.942,-5.9459,-5.9519,-5.9593,-5.9645,-5.9648,-5.9707,-5.975,-5.9816,-5.9869,-5.9925,-6.0006,-6.0073,-6.0121,-6.0189,-6.0227,-6.0231,-6.0244,-6.024,-6.0247,-6.0169,-6.0149,-6.0239,-6.0239,-6.0239,-6.0239,-6.0239,-6.0239,-5.9473,-5.9553,-5.9576,-5.9678,-5.9716,-5.979,-5.9823,-5.9869,-5.9912,-6.0003,-6.0059,-6.009,-6.0142,-6.0214,-6.0276,-6.0289,-6.0312,-6.0325,-6.0337,-6.0262,-6.0253,-6.0244,-6.0226,-6.033,-6.0331,-6.041,-6.0411,-6.0412]},{"header":{"parameterUnit":"m.s-1","parameterCategory":1,"la1":30.2991,"la2":30.254,"lo1":-89.0895,"lo2":-89.0444,"dy":0.0017,"dx":0.0017,"nx":28,"ny":28,"refTime":"2024-05-31T21:00:00:Z","depth":0,"parameterNumber":3,"parameterNumberName":"V-component_of_WINDS"},"data":[0,0,0,0,0,0,0,0,0,0,0,0,0,0,0,0,0,0,0,0,0,0,0,0,0,0,0,0,0,0,0,0,0,0,0,0,0,0,0,0,0,0,0,0,0,0,0,0,0,0,0,0,0,0,0,0,0,0,3.912,3.912,0,3.9108,3.9108,3.9108,3.9087,3.9087,3.9086,3.9086,3.9067,3.9066,3.9066,0,0,0,0,0,0,0,0,0,0,0,0,0,3.9122,3.9122,3.912,3.912,3.912,3.9108,3.9108,3.9108,3.9087,3.9087,3.9086,3.9086,3.9067,3.9067,3.9066,0,0,0,0,0,0,0,0,0,0,0,0,0,3.9116,3.9122,3.912,3.9109,3.9107,3.9108,3.9108,3.9108,3.9087,3.9087,3.9086,3.9086,3.9067,3.9067,3.9066,3.9076,0,0,3.9065,3.9065,0,0,0,0,0,0,0,0,3.9117,3.9116,3.911,3.9109,3.9108,3.9099,3.9101,3.9097,3.9087,3.9095,3.9086,3.9085,3.9077,3.9076,3.9075,3.9075,3.9074,3.9065,3.9065,3.9065,3.9065,0,0,0,0,0,0,0,3.9117,3.9117,3.9115,3.911,3.9109,3.9103,3.9101,3.91,3.9089,3.9094,3.9093,3.9092,3.9076,3.9075,3.9074,3.9074,3.9065,3.9065,3.9065,3.9065,3.9083,3.9084,0,0,0,0,0,0,3.912,3.9117,3.9116,3.9115,3.9111,3.9103,3.9101,3.9102,3.9089,3.9087,3.9092,3.9091,3.9076,3.9075,3.9073,3.9085,3.9065,3.9065,3.9065,3.9082,3.9083,3.9084,0,0,0,0,0,0,3.912,3.912,3.9116,3.9116,3.9115,3.9104,3.9105,3.9102,3.9101,3.9088,3.9085,3.9093,3.9075,3.9074,3.9076,3.9084,3.9065,3.9065,3.9082,3.9083,3.9083,3.9107,0,0,0,0,0,0,3.912,3.912,3.9124,3.9116,3.9115,3.912,3.9105,3.9102,3.9101,3.9099,3.9088,3.9085,3.9075,3.9077,3.9076,3.9083,3.9064,3.9081,3.9082,3.9083,3.9106,3.9109,3.9112,0,0,0,0,0,3.912,3.9129,3.9125,3.9125,3.912,3.9121,3.912,3.911,3.9102,3.9106,3.9098,3.9086,3.9084,3.9077,3.9076,3.9083,3.908,3.9082,3.9083,3.9104,3.9108,3.9111,0,0,0,0,0,0,3.9136,3.9128,3.9123,3.913,3.9127,3.9117,3.9121,3.9114,3.9111,3.9109,3.9094,3.9092,3.9096,3.909,3.9083,3.9093,3.908,3.9081,3.9097,3.91,3.9103,3.9104,3.9064,0,0,0,0,0,3.9141,3.9143,3.9136,3.9143,3.9142,3.9132,3.9132,3.9125,3.912,3.9118,3.911,3.9104,3.9102,3.9101,3.9098,3.9105,3.9103,3.911,3.9113,3.9115,3.9116,3.9121,3.9124,3.9088,3.9088,3.9088,0,0,3.9149,3.9145,3.9147,3.9146,3.9142,3.9145,3.9131,3.9133,3.9135,3.9117,3.912,3.9115,3.9107,3.9113,3.9114,3.9107,3.9126,3.9117,3.9119,3.9119,3.9123,3.9126,3.9129,3.9089,3.9089,3.9089,0,0,3.9166,3.9164,3.917,3.9168,3.9165,3.9159,3.9161,3.9154,3.9151,3.9154,3.9142,3.9143,3.9139,3.9135,3.9133,3.9153,3.9142,3.9152,3.9167,3.9172,3.9175,3.9178,3.9185,3.9188,3.9154,3.9154,3.9154,0,3.9176,3.9181,3.9174,3.9178,3.9178,3.9167,3.9173,3.9171,3.9165,3.9165,3.9158,3.9157,3.915,3.9156,3.9161,3.9159,3.9161,3.9153,3.9176,3.9178,3.918,3.9187,3.919,3.9155,3.9155,3.9155,3.9155,0,3.9195,3.9199,3.9204,3.9203,3.9204,3.9209,3.9202,3.9203,3.9197,3.9192,3.9196,3.9189,3.9186,3.9187,3.9179,3.9192,3.9188,3.9179,3.9165,3.9185,3.9192,3.9194,3.9157,3.9156,3.9156,3.9156,0,0,3.9218,3.9216,3.9218,3.9219,3.9216,3.9218,3.9223,3.9223,3.9225,3.9223,3.9227,3.9226,3.9219,3.9216,3.9209,3.9213,3.9231,3.9203,3.9203,3.9209,3.9245,3.9252,3.9256,3.9225,3.9225,3.9226,3.9246,0,3.9234,3.9245,3.924,3.9251,3.9255,3.9245,3.925,3.9248,3.9244,3.9246,3.9241,3.9242,3.9231,3.923,3.9234,3.9228,3.9238,3.9226,3.9227,3.9227,3.9229,3.9259,3.9265,3.9285,3.9249,3.9249,3.9249,0,3.9254,3.9256,3.9268,3.9268,3.9269,3.9274,3.9275,3.9277,3.9275,3.9272,3.9272,3.9263,3.9268,3.9257,3.9263,3.9255,3.9255,3.9253,3.9253,3.9252,3.9239,3.9258,3.9291,3.9294,3.9253,3.9253,3.9253,0,3.9271,3.9277,3.9285,3.9286,3.9285,3.9289,3.9288,3.9286,3.9288,3.9288,3.9289,3.9289,3.9289,3.9289,3.9281,3.9273,3.9288,3.9275,3.9285,3.9285,3.9287,3.9287,3.932,3.9288,3.9288,3.9288,3.9288,0,3.9289,3.9297,3.9293,3.9298,3.9307,3.9302,3.931,3.9308,3.9307,3.9312,3.9303,3.9306,3.9296,3.9299,3.9293,3.9299,3.9299,3.9296,3.9294,3.9297,3.9297,3.9296,3.9294,3.9289,3.9289,3.9289,3.9289,0,3.9308,3.9306,3.9315,3.9315,3.9316,3.9322,3.9321,3.9326,3.9323,3.9329,3.9329,3.9324,3.9327,3.932,3.9321,3.9317,3.9327,3.9323,3.9328,3.9327,3.9337,3.9336,3.937,3.9374,3.934,3.934,3.9341,0,3.932,3.9326,3.9328,3.9332,3.9333,3.9338,3.9341,3.9336,3.9339,3.9339,3.9344,3.9347,3.9349,3.9354,3.9349,3.935,3.9346,3.9358,3.9346,3.9349,3.9347,3.9346,3.9347,3.936,3.936,3.9361,3.9361,0,3.9341,3.9341,3.9346,3.9351,3.9355,3.9359,3.9361,3.9364,3.9359,3.9363,3.9368,3.937,3.9373,3.9376,3.9377,3.9375,3.9367,3.9365,3.9368,3.937,3.9373,3.9372,3.9335,3.9364,3.9364,3.9363,3.9363,3.9363,3.9357,3.9363,3.9367,3.9373,3.9375,3.9379,3.9384,3.9383,3.9388,3.9392,3.9389,3.9395,3.9395,3.9396,3.9395,3.9399,3.9393,3.9396,3.9397,3.9398,3.94,3.9374,3.9399,3.9399,3.9399,3.9399,3.9399,0,3.9378,3.9381,3.9387,3.9393,3.9398,3.9394,3.9397,3.9402,3.9408,3.941,3.9413,3.942,3.9423,3.9421,3.9424,3.9428,3.9424,3.9428,3.9428,3.9428,3.9404,3.9402,3.9431,3.9431,3.9431,3.9431,3.9431,3.9431,3.9389,3.94,3.9401,3.9413,3.9415,3.9423,3.9426,3.9429,3.9431,3.9439,3.9444,3.9443,3.9443,3.9447,3.945,3.9449,3.9451,3.9456,3.9454,3.9432,3.9429,3.9426,3.9424,3.9457,3.9457,3.9477,3.9477,3.9477]}]]